Location: Hawks Ness
(60.2333°N, 1.1667°W)
Time: 04:59:32
(UTC+00:00)

CZ-2D R/B - Pass Details

Date: 22 October 2019
Orbit: 791 x 845 km, 98.6° (Epoch: 16 November)

Event Time Altitude Azimuth Distance (km) Brightness Sun altitude
Rises 04:41:53 0° 19° (NNE) 3,308 5.7 -17.8°
Reaches altitude 10° 04:44:52 10° 2° (N) 2,377 4.7 -17.5°
Maximum altitude 04:48:18 18° 320° (NW) 1,874 3.7 -17.0°
Enters shadow 04:49:16 17° 307° (NW) 1,918 3.7 -16.9°
